• In France
  • List of Countries
  • For 7 days
  • Water Temperature
  • Satellite Maps
  • Weather Map
  • Weather Widgets
  • user-avatar
    Login

    Hourly Weather Kiszewy

    Today, 19 August, Sunday

    Time Temperature Precipitation Wind Pressure Humidity
    00:00 +22°C° 0 mm 1 mps 754 mmHg 71%
    01:00 +22°C° 0 mm 1 mps 755 mmHg 72%
    02:00 +22°C° 0 mm 1 mps 754 mmHg 73%
    03:00 +19°C° 0 mm 0 mps 754 mmHg 73%
    04:00 +19°C° 0 mm 0 mps 754 mmHg 73%
    05:00 +22°C° 0 mm 1 mps 754 mmHg 71%
    06:00 +23°C° 0 mm 1 mps 755 mmHg 68%
    07:00 +24°C° 0 mm 1 mps 755 mmHg 66%
    08:00 +25°C° 0.1 mm 1 mps 755 mmHg 61%
    09:00 +27°C° 0.1 mm 2 mps 755 mmHg 57%
    10:00 +28°C° 0.1 mm 2 mps 755 mmHg 52%
    11:00 +29°C° 0 mm 2 mps 754 mmHg 48%
    12:00 +29°C° 0 mm 2 mps 754 mmHg 43%
    13:00 +30°C° 0 mm 3 mps 754 mmHg 38%
    14:00 +30°C° 0 mm 3 mps 754 mmHg 37%
    15:00 +30°C° 0 mm 3 mps 753 mmHg 35%
    16:00 +30°C° 0 mm 3 mps 753 mmHg 34%
    17:00 +29°C° 0 mm 2 mps 753 mmHg 38%
    18:00 +27°C° 0 mm 2 mps 753 mmHg 42%
    19:00 +25°C° 0 mm 1 mps 753 mmHg 45%
    20:00 +25°C° 0 mm 1 mps 753 mmHg 46%
    21:00 +24°C° 0 mm 1 mps 753 mmHg 46%
    22:00 +23°C° 0 mm 1 mps 752 mmHg 47%
    23:00 +23°C° 0 mm 2 mps 752 mmHg 48%

    Tomorrow, 20 August, Monday

    Time Temperature Precipitation Wind Pressure Humidity
    00:00 +23°C° 0 mm 2 mps 752 mmHg 48%
    01:00 +21°C° 0 mm 2 mps 752 mmHg 49%
    02:00 +21°C° 0 mm 2 mps 752 mmHg 51%
    03:00 +21°C° 0 mm 2 mps 751 mmHg 53%
    04:00 +21°C° 0 mm 3 mps 751 mmHg 55%
    05:00 +22°C° 0 mm 3 mps 751 mmHg 57%
    06:00 +24°C° 0 mm 3 mps 751 mmHg 59%
    07:00 +25°C° 0 mm 3 mps 751 mmHg 61%
    08:00 +26°C° 0 mm 4 mps 751 mmHg 56%
    09:00 +28°C° 0 mm 4 mps 751 mmHg 51%
    10:00 +29°C° 0 mm 4 mps 751 mmHg 46%
    11:00 +30°C° 0 mm 4 mps 751 mmHg 45%
    12:00 +30°C° 0 mm 5 mps 751 mmHg 43%
    13:00 +30°C° 0 mm 5 mps 750 mmHg 42%
    14:00 +30°C° 0 mm 5 mps 750 mmHg 43%
    15:00 +30°C° 0 mm 6 mps 750 mmHg 44%
    16:00 +29°C° 0 mm 6 mps 750 mmHg 45%
    17:00 +28°C° 0 mm 5 mps 750 mmHg 51%
    18:00 +26°C° 0 mm 4 mps 750 mmHg 56%
    19:00 +25°C° 0 mm 3 mps 750 mmHg 62%
    20:00 +23°C° 0 mm 4 mps 751 mmHg 66%
    21:00 +22°C° 0 mm 4 mps 751 mmHg 70%
    22:00 +21°C° 0 mm 4 mps 752 mmHg 75%
    23:00 +20°C° 0 mm 4 mps 752 mmHg 74%

    Day after tomorrow, 21 August, Tuesday

    Time Temperature Precipitation Wind Pressure Humidity
    00:00 +19°C° 0 mm 3 mps 752 mmHg 74%
    01:00 +18°C° 0 mm 3 mps 752 mmHg 73%
    02:00 +17°C° 0 mm 3 mps 753 mmHg 73%
    03:00 +16°C° 0 mm 3 mps 753 mmHg 73%
    04:00 +14°C° 0 mm 3 mps 753 mmHg 73%
    05:00 +16°C° 0 mm 3 mps 754 mmHg 71%
    06:00 +17°C° 0 mm 4 mps 754 mmHg 69%
    07:00 +17°C° 0 mm 4 mps 755 mmHg 67%
    08:00 +19°C° 0 mm 4 mps 755 mmHg 61%
    09:00 +20°C° 0 mm 4 mps 755 mmHg 55%
    10:00 +22°C° 0 mm 4 mps 755 mmHg 49%
    11:00 +23°C° 0 mm 4 mps 755 mmHg 45%
    12:00 +25°C° 0 mm 4 mps 755 mmHg 41%
    13:00 +26°C° 0 mm 4 mps 755 mmHg 37%
    14:00 +26°C° 0 mm 4 mps 755 mmHg 37%
    15:00 +26°C° 0 mm 3 mps 755 mmHg 37%
    16:00 +26°C° 0 mm 3 mps 755 mmHg 37%
    17:00 +25°C° 0 mm 2 mps 755 mmHg 41%
    18:00 +23°C° 0 mm 2 mps 755 mmHg 45%
    19:00 +22°C° 0 mm 1 mps 755 mmHg 49%
    20:00 +21°C° 0 mm 1 mps 755 mmHg 52%
    21:00 +20°C° 0 mm 1 mps 755 mmHg 55%
    22:00 +19°C° 0 mm 1 mps 756 mmHg 57%
    23:00 +19°C° 0 mm 1 mps 756 mmHg 60%

    22 August, Wednesday

    Time Temperature Precipitation Wind Pressure Humidity
    00:00 +17°C° 0 mm 2 mps 756 mmHg 63%
    01:00 +17°C° 0 mm 2 mps 756 mmHg 66%
    02:00 +16°C° 0 mm 2 mps 756 mmHg 67%
    03:00 +16°C° 0 mm 2 mps 756 mmHg 69%
    04:00 +16°C° 0 mm 2 mps 756 mmHg 71%
    05:00 +17°C° 0 mm 2 mps 756 mmHg 68%
    06:00 +18°C° 0 mm 2 mps 756 mmHg 65%
    07:00 +19°C° 0 mm 3 mps 756 mmHg 63%
    08:00 +21°C° 0 mm 3 mps 756 mmHg 56%
    09:00 +24°C° 0 mm 3 mps 756 mmHg 50%
    10:00 +25°C° 0 mm 3 mps 756 mmHg 44%
    11:00 +26°C° 0 mm 3 mps 755 mmHg 42%
    12:00 +27°C° 0 mm 3 mps 755 mmHg 40%
    13:00 +28°C° 0 mm 3 mps 754 mmHg 37%
    14:00 +28°C° 0 mm 3 mps 754 mmHg 37%
    15:00 +28°C° 0 mm 3 mps 754 mmHg 37%
    16:00 +28°C° 0 mm 3 mps 753 mmHg 37%
    17:00 +27°C° 0 mm 3 mps 753 mmHg 42%
    18:00 +25°C° 0 mm 3 mps 753 mmHg 47%
    19:00 +24°C° 0 mm 3 mps 753 mmHg 51%
    20:00 +22°C° 0 mm 3 mps 753 mmHg 53%
    21:00 +21°C° 0 mm 3 mps 753 mmHg 54%
    22:00 +20°C° 0 mm 3 mps 753 mmHg 56%
    23:00 +20°C° 0 mm 3 mps 753 mmHg 58%

    23 August, Thursday

    Time Temperature Precipitation Wind Pressure Humidity
    00:00 +19°C° 0 mm 3 mps 753 mmHg 61%
    01:00 +19°C° 0 mm 3 mps 753 mmHg 63%
    02:00 +18°C° 0 mm 3 mps 753 mmHg 67%
    03:00 +18°C° 0 mm 3 mps 752 mmHg 70%
    04:00 +18°C° 0 mm 3 mps 752 mmHg 74%
    05:00 +19°C° 0 mm 3 mps 752 mmHg 72%
    06:00 +20°C° 0 mm 3 mps 752 mmHg 69%
    07:00 +21°C° 0 mm 4 mps 752 mmHg 67%
    08:00 +23°C° 0 mm 4 mps 752 mmHg 60%
    09:00 +26°C° 0 mm 4 mps 752 mmHg 53%
    10:00 +28°C° 0 mm 4 mps 751 mmHg 47%
    11:00 +29°C° 0 mm 3 mps 751 mmHg 43%
    12:00 +30°C° 0 mm 3 mps 750 mmHg 40%
    13:00 +31°C° 0 mm 3 mps 750 mmHg 36%
    14:00 +31°C° 0 mm 2 mps 750 mmHg 37%
    15:00 +30°C° 0 mm 2 mps 749 mmHg 38%
    16:00 +30°C° 0 mm 1 mps 749 mmHg 39%
    17:00 +29°C° 0 mm 1 mps 749 mmHg 41%
    18:00 +28°C° 0 mm 2 mps 748 mmHg 43%
    19:00 +27°C° 0 mm 2 mps 748 mmHg 45%
    20:00 +26°C° 0 mm 2 mps 748 mmHg 47%
    21:00 +25°C° 0 mm 3 mps 748 mmHg 48%
    22:00 +25°C° 0 mm 3 mps 748 mmHg 49%
    23:00 +24°C° 0 mm 3 mps 748 mmHg 50%

    24 August, Friday

    Time Temperature Precipitation Wind Pressure Humidity
    00:00 +22°C° 0 mm 3 mps 747 mmHg 51%
    01:00 +22°C° 0 mm 3 mps 747 mmHg 53%
    02:00 +21°C° 0 mm 3 mps 747 mmHg 55%
    03:00 +21°C° 0 mm 3 mps 746 mmHg 58%
    04:00 +21°C° 0 mm 3 mps 746 mmHg 61%
    05:00 +22°C° 0 mm 3 mps 745 mmHg 61%
    06:00 +23°C° 0 mm 4 mps 745 mmHg 61%
    07:00 +25°C° 0 mm 4 mps 745 mmHg 61%
    08:00 +26°C° 0 mm 4 mps 745 mmHg 57%
    09:00 +28°C° 0 mm 4 mps 744 mmHg 53%
    10:00 +30°C° 0 mm 4 mps 744 mmHg 48%
    11:00 +32°C° 0 mm 4 mps 744 mmHg 46%
    12:00 +33°C° 0 mm 5 mps 743 mmHg 43%
    13:00 +33°C° 0 mm 5 mps 743 mmHg 40%
    14:00 +33°C° 0 mm 5 mps 743 mmHg 43%
    15:00 +32°C° 0 mm 5 mps 743 mmHg 45%
    16:00 +30°C° 0 mm 5 mps 743 mmHg 48%
    17:00 +28°C° 0.3 mm 5 mps 743 mmHg 55%
    18:00 +26°C° 0.3 mm 5 mps 743 mmHg 62%
    19:00 +23°C° 0.3 mm 5 mps 744 mmHg 69%
    20:00 +22°C° 0.1 mm 5 mps 744 mmHg 74%
    21:00 +20°C° 0.1 mm 5 mps 745 mmHg 79%
    22:00 +19°C° 0.1 mm 5 mps 745 mmHg 83%
    23:00 +17°C° 0 mm 5 mps 746 mmHg 83%
    Show more